Wind_Speed
22 22 22 22 22 22 21 20 19 18 17 16 16 16 16 17 18 19 21 24 27 31 34 37 41 44 45 47 48 48 49 49 47 47 46 44 43 40 39 39 40 39 37
23 23 23 23 23 23 23 22 21 20 19 18 18 17 17 17 17 18 20 22 24 27 30 34 37 41 43 45 47 48 49 49 48 49 49 47 45 42 40 40 40 39 38
23 23 23 23 24 24 24 24 23 22 21 20 20 19 18 17 16 17 18 20 22 25 28 31 34 37 40 42 45 46 48 48 48 49 50 49 48 45 42 42 42 42 41
23 23 23 24 24 25 25 24 24 24 23 22 21 21 20 19 18 18 18 19 20 22 24 28 31 33 36 39 42 44 46 47 47 48 49 49 48 47 45 43 43 43 43
23 23 24 24 25 25 25 25 25 25 25 24 23 22 21 20 19 18 18 18 19 20 22 24 27 30 32 34 38 41 44 45 46 47 48 48 47 46 46 45 44 45 44
22 23 24 24 25 26 26 26 26 26 26 25 24 24 23 22 20 19 17 17 18 19 20 22 24 27 29 31 33 36 40 43 44 45 47 47 45 46 47 46 44 44 43
22 23 24 24 25 26 26 27 27 27 27 26 26 26 25 23 21 19 17 16 16 16 18 20 21 23 25 27 29 32 34 37 40 41 43 44 45 45 46 46 44 43 43
22 23 24 24 25 25 26 27 27 27 27 28 27 27 26 25 23 21 17 15 13 13 14 16 18 19 21 23 25 27 29 31 35 38 39 39 41 43 43 43 43 42 41
22 23 24 24 25 25 26 27 27 28 28 28 28 27 27 26 25 22 18 14 12 10 10 12 15 17 18 21 23 25 26 27 30 32 34 36 37 37 38 39 39 39 40
22 23 24 24 25 25 26 26 27 27 28 28 28 28 27 27 26 24 19 15 12 8 6 8 11 13 15 18 19 22 23 25 26 28 30 32 35 35 36 36 37 38 37
22 23 24 24 25 25 25 26 26 27 27 28 28 28 27 26 26 25 22 18 14 10 6 4 6 9 11 14 16 18 20 23 23 24 27 29 32 33 33 34 36 36 35
23 23 24 24 24 25 25 25 26 26 26 27 27 27 27 26 25 24 22 20 16 12 7 4 3 6 8 10 12 13 15 18 20 21 23 25 27 30 31 31 32 33 34
23 23 23 24 24 24 24 25 25 25 26 26 26 26 26 25 24 23 21 19 16 13 9 6 2 3 6 8 9 10 11 13 16 19 20 22 24 26 29 29 29 30 30
23 24 23 24 24 24 24 24 25 25 25 25 25 24 24 24 23 22 20 19 16 14 10 7 3 1 3 5 7 9 10 12 13 16 18 20 22 23 25 26 27 28 28
25 24 24 24 24 24 24 24 24 24 24 24 24 23 23 22 22 21 19 18 16 14 11 8 5 2 1 3 5 7 9 9 11 13 15 18 20 21 22 24 25 26 27
27 26 26 25 25 25 24 24 24 24 24 23 23 22 21 21 20 19 18 17 15 14 11 8 5 3 2 3 4 5 7 9 11 12 14 15 18 20 22 24 24 25 25
29 29 28 28 27 26 26 25 24 24 23 23 23 22 21 20 19 18 17 16 14 13 11 8 5 3 2 3 3 5 6 8 10 12 13 14 16 18 20 21 23 23 24
30 30 30 30 29 29 28 27 26 25 24 23 23 22 21 20 19 18 16 15 13 12 10 8 6 4 3 4 4 5 6 7 10 11 13 14 15 16 18 19 21 22 22
31 31 31 31 31 31 31 30 29 28 27 26 24 23 22 21 20 19 17 15 14 12 10 8 7 5 4 5 6 6 6 7 9 10 12 13 14 16 17 17 17 19 20
33 32 32 32 32 33 33 33 32 31 30 29 28 26 24 23 22 21 19 17 16 14 12 10 8 7 6 6 7 7 8 9 9 10 11 13 14 15 16 17 17 18 19
34 34 34 33 33 34 34 34 34 34 34 33 32 30 28 26 25 24 23 21 19 17 15 13 12 10 9 8 8 9 10 11 11 12 13 14 15 15 16 17 18 19 19
34 35 35 35 35 36 36 36 36 37 37 37 36 35 33 31 29 28 27 25 23 22 20 18 16 15 14 13 12 12 12 13 14 14 15 16 17 17 17 18 19 19 20
36 37 37 37 37 38 38 39 39 39 39 40 40 40 38 37 35 33 31 30 29 27 25 23 22 20 19 18 17 16 16 16 17 17 18 18 19 19 20 20 20 21 21
39 39 39 40 40 41 41 41 41 42 43 43 43 44 43 42 41 39 38 35 34 32 31 29 27 26 24 23 22 21 21 20 20 21 21 21 21 21 21 22 22 22 22
41 41 42 42 43 43 44 44 45 45 46 46 47 47 48 48 47 46 44 42 40 37 36 35 33 32 30 29 27 26 26 25 25 24 24 24 24 23 23 24 23 23 23
43 44 45 45 46 46 47 47 48 49 50 50 51 51 52 52 52 52 51 49 47 44 42 40 39 37 36 35 33 32 31 30 29 29 28 27 27 27 27 26 26 26 26
Wind_Direction
20 19 18 16 14 11 7 3 358 353 346 338 328 317 307 296 284 274 265 257 252 247 244 242 240 239 238 237 237 237 236 236 236 234 232 233 233 233 233 233 234 234 237
19 19 18 16 14 12 9 5 360 354 349 342 335 326 316 306 295 283 271 263 256 250 246 243 241 239 238 237 236 236 237 236 235 235 234 234 233 234 233 233 233 233 237
18 17 16 14 13 11 9 6 2 357 351 345 339 334 326 315 304 292 279 270 261 254 249 245 241 239 238 236 235 235 235 236 235 235 235 235 236 234 234 233 234 234 236
16 15 14 13 11 10 8 6 4 360 355 350 345 340 333 325 314 301 288 277 267 259 253 246 242 240 237 235 234 233 234 235 235 236 236 236 237 234 233 233 234 234 237
11 11 11 10 9 8 7 5 3 1 359 355 350 345 339 332 322 310 296 284 273 264 256 248 243 239 237 235 233 234 234 235 236 237 236 237 237 236 234 233 233 234 235
4 5 6 6 6 6 6 5 3 2 360 358 355 351 346 340 331 321 307 291 279 266 257 251 245 240 237 236 235 233 233 233 234 235 236 236 235 234 234 234 234 233 235
360 1 2 2 3 3 4 4 4 3 2 0 359 357 353 348 342 332 320 305 290 272 259 250 244 241 236 234 233 232 232 231 231 233 233 233 233 233 232 233 234 234 234
355 356 358 359 360 1 1 2 3 3 3 3 1 1 359 356 353 346 336 324 308 284 264 251 244 242 238 233 231 229 230 230 230 230 231 230 232 233 233 233 234 235 236
348 350 351 353 355 357 358 360 1 2 3 4 3 3 3 2 1 359 353 344 330 306 276 255 242 239 237 232 230 227 228 229 228 228 229 229 230 231 230 231 231 234 234
342 344 346 348 349 352 354 356 358 360 2 3 4 5 5 5 6 7 6 0 351 337 301 261 244 238 232 228 228 227 227 226 226 226 227 228 229 230 229 228 230 232 232
337 339 341 343 345 347 350 353 355 357 359 1 4 5 6 7 8 10 12 11 7 2 344 289 248 238 232 228 230 230 229 226 226 224 223 224 224 224 223 223 225 227 228
334 335 336 338 340 342 345 347 350 353 355 358 1 4 6 8 9 11 13 15 16 14 8 343 263 239 231 225 228 231 231 227 224 223 220 219 219 219 220 219 220 222 224
329 331 332 334 335 337 340 342 345 348 351 354 357 0 3 7 9 11 13 16 19 21 17 12 346 243 229 221 219 225 226 223 220 219 217 215 213 215 217 217 218 217 218
323 324 326 328 330 332 334 336 339 342 345 348 351 355 359 3 7 10 12 15 18 20 21 19 15 314 229 224 223 223 221 218 216 214 213 211 211 212 212 212 213 212 214
315 317 319 321 323 325 328 330 333 336 339 341 345 348 352 356 1 5 8 12 15 17 17 17 13 353 267 235 233 230 224 218 212 210 210 208 209 210 210 210 211 213 216
308 309 311 313 315 317 320 322 325 328 330 333 336 339 342 346 351 357 1 4 8 10 11 13 8 346 291 260 242 230 225 219 213 209 209 208 206 206 206 208 210 210 210
301 302 303 305 306 308 310 313 316 318 321 324 326 330 332 334 338 343 349 354 357 1 3 2 356 339 292 266 251 237 226 217 212 212 212 208 203 204 204 206 208 209 211
297 297 298 299 299 300 301 303 305 308 311 313 316 318 321 323 325 328 333 337 343 348 349 349 343 325 292 269 254 244 234 223 214 211 210 208 205 206 205 205 205 206 208
297 296 296 295 295 295 295 296 297 299 300 303 305 307 309 311 313 314 316 319 323 327 330 329 325 316 290 265 252 239 231 221 214 212 207 207 207 205 204 205 205 206 208
298 298 297 295 294 293 292 292 291 291 292 293 295 296 298 299 301 302 302 302 303 304 306 305 301 295 285 263 247 236 229 223 218 214 208 206 206 206 205 205 208 208 208
298 298 297 296 294 293 291 290 289 288 287 286 286 287 288 289 290 290 291 290 289 288 287 286 282 275 267 258 247 239 231 225 221 218 215 211 210 210 208 208 208 209 209
297 297 297 296 295 293 291 289 288 286 284 282 281 280 280 280 280 281 281 281 280 277 274 272 270 266 259 253 247 240 234 228 223 221 219 217 216 214 212 211 210 210 211
298 298 297 296 295 294 292 290 287 285 283 281 279 277 275 274 273 272 272 272 272 271 268 265 262 259 255 250 246 241 236 231 226 224 223 221 220 219 218 216 215 214 214
298 299 298 297 296 295 293 291 288 286 283 280 277 275 272 270 268 266 265 265 265 265 263 261 258 254 252 248 245 241 237 233 230 228 227 226 224 223 222 221 220 219 219
299 299 299 298 297 296 294 292 290 287 284 280 277 274 271 268 265 263 261 259 258 258 258 257 255 252 249 246 243 241 238 235 232 231 230 229 227 226 224 224 223 222 222
299 299 299 298 298 296 295 293 291 288 284 281 277 274 271 267 264 261 258 256 254 252 251 252 251 250 248 245 242 240 238 236 235 233 232 230 229 228 227 226 226 225 225
Height
5806 5802 5797 5793 5788 5784 5779 5775 5771 5767 5763 5760 5756 5753 5751 5748 5746 5745 5744 5744 5745 5746 5748 5751 5754 5758 5762 5767 5771 5776 5781 5786 5791 5795 5800 5804 5809 5813 5818 5822 5827 5831 5835
5808 5803 5799 5794 5789 5784 5780 5775 5770 5766 5761 5757 5753 5750 5747 5744 5741 5739 5738 5737 5738 5738 5740 5742 5745 5748 5752 5756 5761 5766 5770 5776 5781 5785 5790 5794 5799 5804 5809 5813 5818 5822 5826
5809 5805 5800 5795 5790 5785 5780 5775 5770 5765 5760 5755 5751 5746 5742 5739 5736 5733 5732 5731 5730 5731 5731 5733 5735 5738 5742 5746 5750 5755 5760 5765 5770 5775 5780 5785 5789 5794 5799 5804 5809 5813 5818
5811 5806 5801 5796 5791 5786 5780 5775 5769 5764 5759 5754 5748 5743 5739 5734 5731 5728 5726 5724 5723 5723 5723 5724 5726 5729 5732 5736 5740 5745 5749 5755 5759 5764 5769 5775 5779 5784 5790 5795 5800 5804 5809
5812 5807 5802 5797 5791 5786 5780 5775 5769 5763 5758 5752 5746 5741 5736 5731 5726 5722 5719 5717 5716 5716 5716 5716 5718 5720 5723 5726 5730 5735 5740 5745 5749 5754 5760 5765 5770 5775 5781 5786 5790 5795 5799
5812 5807 5802 5797 5792 5786 5781 5775 5769 5763 5757 5751 5745 5739 5733 5727 5722 5717 5714 5711 5709 5709 5709 5709 5711 5713 5715 5719 5722 5726 5730 5735 5740 5745 5750 5755 5761 5766 5771 5776 5780 5785 5790
5812 5807 5802 5797 5792 5786 5781 5775 5769 5762 5756 5750 5743 5737 5730 5724 5718 5713 5708 5705 5703 5702 5702 5703 5704 5706 5708 5711 5714 5717 5721 5725 5731 5736 5741 5746 5752 5757 5762 5767 5771 5776 5781
5811 5806 5801 5796 5791 5786 5780 5775 5769 5762 5756 5749 5742 5735 5729 5722 5716 5710 5705 5701 5698 5696 5696 5697 5699 5700 5702 5705 5708 5711 5714 5718 5723 5728 5733 5738 5742 5747 5752 5758 5762 5767 5771
5810 5805 5800 5796 5791 5785 5780 5774 5768 5762 5756 5749 5742 5735 5728 5722 5715 5708 5703 5698 5695 5693 5692 5693 5694 5696 5698 5700 5703 5705 5708 5711 5715 5719 5724 5729 5734 5739 5744 5749 5754 5758 5762
5808 5804 5799 5794 5790 5784 5779 5774 5768 5762 5756 5749 5743 5736 5729 5722 5715 5709 5703 5698 5694 5691 5690 5690 5691 5692 5694 5696 5699 5701 5704 5707 5710 5713 5717 5721 5726 5731 5736 5741 5746 5751 5755
5806 5802 5797 5793 5788 5783 5778 5773 5767 5762 5756 5750 5743 5737 5730 5724 5717 5711 5705 5700 5695 5692 5690 5689 5689 5690 5691 5694 5695 5697 5699 5702 5704 5707 5711 5714 5719 5724 5729 5733 5738 5743 5748
5803 5799 5795 5791 5786 5781 5777 5772 5766 5761 5756 5750 5744 5738 5732 5725 5719 5713 5707 5702 5698 5694 5691 5690 5689 5689 5690 5692 5694 5695 5696 5698 5701 5703 5706 5709 5713 5718 5723 5727 5731 5736 5740
5800 5796 5792 5788 5783 5779 5774 5770 5765 5760 5755 5750 5744 5739 5733 5727 5721 5715 5710 5705 5701 5697 5694 5692 5690 5690 5690 5691 5692 5694 5695 5696 5698 5700 5702 5705 5708 5713 5717 5721 5725 5729 5733
5795 5792 5788 5784 5780 5776 5772 5767 5763 5758 5754 5749 5744 5739 5734 5728 5723 5718 5713 5708 5704 5700 5697 5694 5693 5692 5691 5691 5692 5693 5693 5695 5696 5697 5699 5701 5704 5708 5712 5716 5720 5724 5728
5790 5787 5783 5780 5776 5772 5768 5764 5760 5756 5752 5748 5743 5738 5734 5729 5724 5719 5715 5710 5706 5702 5699 5697 5695 5694 5693 5692 5692 5692 5693 5693 5694 5695 5697 5699 5702 5705 5708 5712 5715 5719 5723
5784 5781 5778 5774 5771 5768 5764 5760 5757 5753 5749 5745 5741 5737 5733 5729 5725 5720 5716 5712 5708 5704 5701 5698 5697 5695 5694 5694 5693 5693 5693 5693 5694 5695 5696 5697 5699 5702 5705 5709 5712 5716 5719
5777 5774 5771 5768 5765 5762 5759 5755 5752 5749 5745 5742 5738 5735 5731 5728 5724 5720 5717 5713 5709 5706 5703 5700 5698 5696 5695 5694 5694 5693 5693 5693 5693 5694 5695 5696 5698 5700 5703 5706 5709 5712 5716
5768 5765 5763 5760 5757 5755 5752 5749 5746 5743 5741 5738 5735 5732 5728 5725 5722 5719 5716 5713 5709 5706 5703 5701 5699 5697 5695 5694 5694 5693 5693 5693 5693 5693 5694 5695 5697 5699 5701 5704 5706 5709 5712
5759 5756 5754 5751 5749 5746 5744 5741 5739 5737 5734 5732 5729 5727 5724 5721 5719 5716 5713 5711 5708 5706 5703 5700 5698 5697 5695 5694 5693 5693 5692 5692 5692 5693 5693 5694 5696 5697 5700 5702 5704 5706 5709
5749 5747 5744 5742 5740 5737 5735 5733 5730 5729 5727 5725 5723 5721 5719 5716 5714 5712 5710 5708 5706 5704 5701 5699 5697 5696 5694 5693 5692 5692 5691 5691 5691 5692 5693 5694 5695 5696 5698 5700 5702 5704 5707
5739 5737 5734 5732 5730 5727 5725 5723 5721 5719 5717 5716 5714 5713 5711 5710 5708 5706 5705 5703 5701 5700 5698 5697 5695 5693 5692 5691 5690 5690 5690 5690 5690 5690 5691 5692 5693 5695 5696 5698 5700 5702 5704
5729 5727 5724 5721 5719 5716 5714 5712 5710 5708 5706 5705 5704 5703 5702 5701 5700 5698 5697 5696 5695 5694 5693 5692 5691 5690 5689 5688 5687 5687 5687 5687 5688 5688 5689 5690 5691 5692 5694 5695 5697 5699 5701
5718 5715 5713 5710 5707 5705 5702 5700 5698 5696 5694 5693 5691 5690 5690 5690 5689 5688 5688 5687 5687 5686 5686 5685 5684 5684 5684 5683 5683 5683 5683 5683 5684 5685 5685 5686 5688 5689 5690 5692 5693 5695 5697
5706 5703 5700 5697 5694 5692 5689 5687 5684 5682 5681 5679 5678 5676 5676 5676 5676 5676 5676 5676 5676 5676 5676 5676 5676 5676 5676 5676 5676 5677 5677 5678 5678 5679 5680 5681 5683 5684 5686 5687 5689 5691 5693
5693 5690 5687 5684 5681 5678 5675 5672 5669 5667 5665 5663 5662 5661 5660 5659 5660 5660 5661 5661 5662 5663 5664 5665 5665 5666 5666 5667 5668 5669 5670 5671 5672 5673 5674 5675 5677 5678 5680 5682 5683 5685 5687
5680 5677 5673 5669 5666 5662 5659 5656 5653 5650 5647 5645 5643 5642 5641 5641 5641 5642 5643 5644 5646 5647 5648 5650 5652 5653 5654 5656 5657 5659 5660 5662 5663 5664 5666 5668 5670 5671 5673 5675 5677 5679 5681